Location: Gorze? G�rny
(49.8500°N, 19.5000°E)
Time: 23:50:54
(UTC+00:00)

Daily predictions for brighter satellites

Satellite Brightness Start Highest point End
(mag) Time Altitude Azimuth Time Altitude Azimuth Time Altitude Azimuth
MOS 1-B Rocket 4.4 18:47:34 10° NNE 18:55:06 87° ESE 19:01:27 10° SSW
Cosmos 773 Rocket 4.1 18:54:55 10° NNW 19:00:16 86° ENE 19:05:33 10° SSE
Cosmos 2315 Rocket 4.2 18:54:48 10° S 19:01:02 59° E 19:07:17 10° NNE
SPOT 3 Rocket 3.6 18:56:26 10° SSE 19:01:32 67° ENE 19:06:40 10° N
Cosmos 1538 Rocket 4.4 18:58:02 10° NNW 19:03:19 54° ENE 19:08:31 10° SE
CZ-2C R/B 4.4 19:01:55 10° NNE 19:06:03 34° E 19:10:13 10° SSE
IGS 5A 3.5 19:02:26 10° SSE 19:06:33 69° ENE 19:10:42 10° N
USA 306 2.9 19:07:35 10° WNW 19:11:51 79° SSW 19:16:02 10° ESE
Spot 2 Rocket 4.1 19:07:30 10° SE 19:12:12 41° ENE 19:16:55 10° N
ERS-1 Rocket 4.1 19:10:11 10° ESE 19:14:32 30° ENE 19:18:54 10° N
Resurs 01 Rocket 1.7 19:12:37 10° SSE 19:17:05 83° WSW 19:21:33 10° NNW
CRYOSAT 2 4.5 19:13:16 10° SSE 19:18:06 64° E 19:22:58 10° N
Cosmos 1500 3.1 19:14:27 10° N 19:18:13 72° E 19:21:56 10° SSE
SWARM A 4.4 19:24:09 10° N 19:27:26 53° E 19:30:22 12° SSE
Cosmos 1242 Rocket 4.0 19:26:17 10° SW 19:29:38 38° WNW 19:32:58 10° N
Cosmos 1515 Rocket 3.8 19:25:53 10° S 19:30:09 52° E 19:34:26 10° NNE
Cosmos 2082 Rocket 2.4 19:25:23 10° NNW 19:30:57 61° ENE 19:35:48 14° SE
Cosmos 1633 Rocket 3.8 19:29:35 10° NNW 19:33:53 52° W 19:38:10 10° S
Meteor 1-26 Rocket 4.5 19:29:17 10° SSW 19:34:53 72° WNW 19:40:23 10° N
deb Kosmos-1763 4.0 19:34:12 10° NNW 19:37:46 83° WSW 19:40:35 15° SSE
Cosmos 1777 Rocket 3.9 19:33:22 10° SSW 19:38:35 83° ESE 19:43:49 10° NNE
MetOp-B 4.3 19:33:32 10° SSE 19:38:53 79° WSW 19:44:17 10° NNW
USA 307 3.1 19:35:04 10° WNW 19:39:17 59° SSW 19:42:29 17° SE
Cosmos 44 4.2 19:37:33 10° NNW 19:42:50 47° NE 19:47:22 13° ESE
COSMOS 2406 3.5 19:37:50 10° NNW 19:43:28 65° WSW 19:48:38 12° SSE
Cosmos 1328 Rocket 4.0 19:40:30 10° SSW 19:44:53 66° WNW 19:49:18 10° N
Terra 2.7 19:41:37 15° SE 19:45:04 37° ENE 19:49:26 10° N
Cosmos 1470 Rocket 4.0 19:43:46 10° NNW 19:48:14 64° W 19:52:39 10° S
NOSS 3-4 (A) 3.9 19:44:10 10° NW 19:51:06 85° SW 19:57:24 17° SE
NOSS 3-4 (C) 3.9 19:44:17 10° NW 19:51:12 86° SW 19:57:30 17° SE
USA 308 3.4 19:48:48 10° WNW 19:52:57 49° SW 19:55:41 20° SSE
Cosmos 1271 Rocket 2.9 19:51:36 14° S 19:54:53 57° E 19:58:51 10° NNE
Cosmos 1943 Rocket 3.6 19:53:24 16° ESE 19:55:15 19° E 19:58:59 10° ENE
CARTOSAT-1 3.5 19:52:44 17° SSE 19:56:03 81° ENE 20:00:23 10° NNW
Cosmos 923 Rocket 4.2 19:50:49 10° NNW 19:56:04 66° ENE 19:59:52 19° SE
CZ-4C R/B 3.6 19:49:51 10° NW 19:56:50 51° WSW 20:03:58 13° SSE
Cosmos 2278 Rocket 2.2 19:51:38 10° SSW 19:57:18 85° ESE 20:03:00 10° NNE
Meteor 2-6 Rocket 4.1 19:53:42 10° S 19:59:08 85° E 20:04:45 10° NNE
SPOT 5 3.1 19:56:43 18° SSE 20:00:36 69° ENE 20:05:55 10° N
NOSS 3-3 (A) 4.4 19:55:41 10° SW 20:01:32 67° NW 20:08:22 10° NE
NOSS 3-3 (C) 4.4 19:55:47 10° SW 20:01:40 67° NW 20:08:28 10° NE
Cosmos 1933 Rocket 3.8 19:57:58 10° NNW 20:02:17 68° W 20:05:53 15° S
ERBS 3.5 19:59:52 10° NW 20:02:58 36° NNE 20:05:40 13° E
ARIANE 5 R/B 2.6 20:00:59 17° S 20:04:17 79° WSW 20:08:40 10° NNW
ATLAS 2AS CENTAUR R/B 2.9 19:57:07 10° NW 20:04:38 77° NE 20:09:59 18° SE
Cosmos 2369 Rocket 4.1 20:04:18 11° ESE 20:05:08 12° E 20:07:01 10° ENE
Meteor 1-27 Rocket 4.1 20:02:56 16° SSE 20:07:25 52° E 20:13:10 10° NNE
Iridium 4 Rocket 3.8 20:03:50 12° S 20:09:20 86° E 20:15:17 10° N
USA 215 4.2 20:03:10 10° ENE 20:09:23 48° N 20:15:36 10° WNW
Cosmos 2154 Rocket 4.0 20:08:25 10° N 20:14:47 75° E 20:19:17 20° SSE
SJ 16-02 1.5 20:10:53 10° SSW 20:15:19 78° WNW 20:19:47 10° NNE
Cosmos 158 Rocket 4.1 20:13:15 10° NNW 20:18:06 62° WSW 20:21:23 20° S
Cosmos 1733 Rocket 4.1 20:17:37 10° N 20:21:30 31° ENE 20:23:22 22° ESE
Cosmos 2184 Rocket 4.2 20:15:37 10° NNW 20:21:48 72° W 20:26:52 16° S
Cosmos 1812 4.0 20:18:46 10° SW 20:22:24 39° WNW 20:26:04 10° N
USA 245 4.2 20:21:45 15° SW 20:22:44 19° W 20:24:31 10° NW
Cosmos 1666 3.8 20:19:55 10° NNW 20:23:25 39° W 20:26:05 15° SSW
Cosmos 2074 Rocket 4.3 20:17:46 10° NNW 20:24:02 67° W 20:29:19 15° S
Gbstr 26 Del rocket 4.2 20:17:35 10° WNW 20:25:22 90° SSW 20:30:58 15° ESE
Nadezhda 1 Rocket 4.0 20:23:31 16° S 20:28:38 77° E 20:34:52 10° NNE
Cosmos 1238 Rocket 4.4 20:23:00 10° N 20:28:49 42° ENE 20:31:43 24° SE
Cosmos 1833 Rocket 4.1 20:25:33 10° NW 20:30:24 30° WSW 20:34:50 12° SSW
USA 305 4.2 20:28:25 10° W 20:31:59 26° SW 20:33:23 22° SSW
Meteor 1-11 Rocket 4.1 20:27:55 10° NNW 20:33:52 68° W 20:38:05 20° S
CZ-4B DEB 4.2 20:33:07 40° S 20:34:10 85° W 20:37:24 10° NNW
Cosmos 2112 Rocket 4.0 20:29:17 10° NNW 20:34:41 87° ENE 20:37:39 27° SSE
Cosmos 2084 Rocket 3.5 20:31:28 10° NW 20:35:43 75° NE 20:37:52 29° SE
Cosmos 1340 Rocket 2.8 20:37:23 10° N 20:41:31 85° ENE 20:43:08 35° SSE
SL-24 DEB 4.2 20:40:51 27° S 20:43:21 82° W 20:48:00 10° N
Okean 1 4.1 20:42:34 31° ESE 20:43:22 34° E 20:46:59 10° NNE
Cosmos 1544 3.0 20:40:09 10° NNW 20:43:47 84° W 20:45:00 40° S
Cosmos 1743 2.7 20:41:07 10° N 20:44:59 74° E 20:46:16 40° SSE
Cosmos 967 Rocket 4.5 20:48:11 16° SSW 20:53:08 60° ESE 20:59:19 10° NE
ERS-1 Rocket 3.8 20:49:58 20° SSW 20:53:10 44° W 20:58:00 10° NNW
Resurs 01 Rocket 4.4 20:53:22 10° W 20:54:17 11° W 20:55:13 10° WNW
Cosmos 2228 Rocket 3.8 20:51:36 16° SSW 20:55:02 51° WNW 20:59:26 10° N
Cosmos 1937 Rocket 3.6 20:52:46 30° S 20:55:05 57° ESE 21:00:11 10° NNE
BREEZE-M R/B 1.7 20:54:18 10° W 20:56:44 84° S 20:56:45 84° S
Cosmos 2181 Rocket 4.3 20:54:26 29° SSE 20:57:18 49° E 21:03:10 10° NNE
Cosmos 2297 3.6 20:54:46 22° SSW 20:58:33 70° ESE 21:04:13 10° NNE
Cosmos 2366 rocket 4.3 20:53:07 10° N 20:59:12 56° ENE 21:02:19 29° SE
Cosmos 1536 3.7 20:56:08 10° NNW 20:59:57 42° W 21:01:47 25° SSW
Cosmos 1680 Rocket 4.0 20:55:56 10° NNW 21:01:06 52° WSW 21:03:43 27° S
BREEZE M DEB (TANK) 3.8 21:05:02 10° W 21:05:55 14° WSW 21:05:55 14° WSW
Cosmos 1862 Rocket 3.7 21:07:18 42° SE 21:08:23 55° E 21:12:37 10° NNE
Cosmos 858 Rocket 4.4 21:08:41 31° S 21:11:13 74° ESE 21:16:28 10° NNE
Cosmos 489 Rocket 4.4 21:05:08 10° NNW 21:11:25 83° ENE 21:14:31 32° SSE
Cosmos 2341 Rocket 4.1 21:06:43 10° NNW 21:13:09 81° W 21:16:33 30° S
Cosmos 2082 Rocket 3.7 21:10:05 10° NW 21:14:39 26° WSW 21:17:39 17° SW
SL-24 R/B - RUBIN 2 4.5 21:10:14 10° NW 21:15:25 45° WSW 21:17:02 33° SSW
Cosmos 1975 3.0 21:12:13 10° N 21:16:10 56° ENE 21:16:58 46° ESE
Okean 1-7 4.3 21:19:09 25° E 21:19:37 26° E 21:23:11 10° NNE
RESURS DK-1 3.2 21:18:07 10° NNW 21:22:07 43° NE 21:23:35 30° E
Terra 3.1 21:20:30 21° SW 21:22:51 32° W 21:27:08 10° NNW
Cosmos 44 4.2 21:19:02 10° NW 21:24:05 40° WSW 21:25:46 31° SSW
Cosmos 1900 4.4 21:20:03 16° SW 21:24:11 81° NW 21:29:16 10° NE
Cosmos 2218 Rocket 4.0 21:18:12 10° N 21:24:32 85° E 21:27:31 34° SSE
Meteor 1-18 Rocket 4.2 21:22:48 36° SSE 21:25:04 68° E 21:30:37 10° NNE
Cosmos 1818 3.9 21:24:33 10° NW 21:29:53 53° WSW 21:31:40 38° S
Cosmos 1707 Rocket 4.2 21:29:10 27° SW 21:31:14 49° WNW 21:35:34 10° N
Cosmos 1515 4.0 21:30:24 43° SW 21:31:22 59° WNW 21:35:08 10° N
DNEPR-1 R/B 4.0 21:28:41 16° SW 21:33:26 90° ESE 21:38:19 10° NE
Cosmos 1898 Rocket 4.2 21:33:29 15° SW 21:37:47 53° WNW 21:43:01 10° NNE
Cosmos 1943 Rocket 2.2 21:34:50 24° SSW 21:38:18 82° WNW 21:43:56 10° NNE
SL-27 R/B 3.5 21:35:17 10° N 21:38:21 32° ENE 21:38:40 32° ENE
ERBS 3.2 21:35:58 10° WNW 21:38:25 38° W 21:38:25 38° W
Cosmos 1461 3.0 21:39:44 40° SSW 21:41:24 81° SE 21:46:02 10° NE
Cosmos 2278 Rocket 4.5 21:37:37 10° W 21:42:08 24° NW 21:46:38 10° NNE
ISS -1.4 21:45:44 15° ENE 21:45:44 15° ENE 21:46:27 10° ENE
SL-8 Rocket 4.3 21:37:28 10° NNW 21:43:43 63° W 21:46:42 32° SSW
Cosmos 372 Rocket 3.8 21:44:30 40° SSW 21:46:21 86° ESE 21:51:29 10° NNE
ALOS 2 2.8 21:45:19 46° SE 21:46:22 62° ENE 21:50:44 10° N
Cosmos 2369 Rocket 2.1 21:46:03 40° S 21:48:04 69° ESE 21:53:43 10° NNE
Spot 4 3.9 21:49:36 46° S 21:50:59 73° WSW 21:55:52 10° NNW
USA 215 3.6 21:45:28 10° E 21:51:55 64° NNE 21:58:23 10° WNW
Cosmos 1656 Rocket 3.9 21:53:01 42° SSE 21:54:16 50° ESE 21:59:37 10° NE
SJ 16-02 4.3 21:52:29 10° WNW 21:54:42 13° NW 21:56:54 10° NNW
ATLAS 2AS CENTAUR R/B 3.8 21:48:49 10° NW 21:54:56 30° WSW 21:57:25 24° SW
Cosmos 2150 Rocket 4.3 21:57:09 42° SE 21:58:18 50° ESE 22:03:25 10° NNE
Cosmos 494 Rocket 4.1 21:53:13 10° NNW 21:58:26 68° ENE 22:00:12 40° SE
Cosmos 1733 Rocket 4.4 21:55:30 10° NNW 21:59:16 29° W 22:00:27 25° WSW
ATLAS CENTAUR R/B 2.2 22:05:46 32° E 22:05:46 32° E 22:08:20 10° NE
Cosmos 468 4.4 22:01:17 10° NNW 22:06:36 82° WSW 22:08:06 48° SSE
SL-08 R/B 4.5 22:00:45 10° N 22:06:59 83° W 22:09:29 40° S
Sich 1 Rocket 4.4 22:05:03 10° N 22:09:24 42° ENE 22:10:34 35° ESE
Lacrosse 5 3.6 22:11:33 18° ESE 22:11:33 18° ESE 22:13:55 10° E
Gbstr 26 Del rocket 4.4 22:05:34 10° WNW 22:12:16 42° SW 22:13:27 39° SSW
Cosmos 1125 Rocket 3.7 22:13:49 46° SSE 22:14:54 54° ESE 22:19:59 10° NNE
Cosmos 1300 Rocket 4.4 22:10:42 10° N 22:14:54 41° ENE 22:15:55 35° ESE
Cosmos 1908 Rocket 4.0 22:11:56 10° NNW 22:16:18 51° W 22:17:07 44° SW
Cosmos 2242 Rocket 3.5 22:15:34 56° SSW 22:16:27 80° W 22:20:58 10° N
Cosmos 1805 4.1 22:13:10 10° N 22:16:52 39° ENE 22:17:23 37° E
Cosmos 2263 4.2 22:16:52 40° SSW 22:19:04 85° ESE 22:24:55 10° NNE
NOSS 2-1 (C) 4.3 22:18:33 10° NW 22:23:10 70° NE 22:26:57 24° SE
Cosmos 1867 3.5 22:23:10 41° SSW 22:25:08 84° SE 22:30:39 10° NE
Okean 2 Rocket 3.9 22:21:54 10° N 22:26:07 42° ENE 22:27:11 36° ESE
Meteor 2-4 Rocket 4.0 22:24:42 35° SW 22:27:03 63° WNW 22:32:38 10° N
Okean 3 3.4 22:29:18 64° SE 22:29:46 71° E 22:34:00 10° NNE
NOSS 2-1 (D) 4.2 22:25:22 10° NW 22:30:02 77° NE 22:33:34 26° SE
COBE Rocket 4.0 22:29:16 48° SSW 22:30:35 68° W 22:35:46 10° NNW
Cosmos 1766 4.2 22:26:58 10° N 22:30:42 38° ENE 22:31:20 35° E
Cosmos 2227 Rocket 4.3 22:29:53 10° NNW 22:34:24 24° NE 22:38:54 10° E
Cosmos 2297 Rocket 3.9 22:32:28 10° NNW 22:37:23 29° NE 22:42:17 10° ESE
COSMOS 2487 3.0 22:38:06 10° NNW 22:41:24 47° ENE 22:41:31 46° ENE
Cosmos 1934 Rocket 3.9 22:35:25 10° N 22:41:35 81° E 22:43:56 40° SSE
Meteor 1-13 Rocket 4.1 22:40:09 45° SSW 22:41:56 88° W 22:47:29 10° NNE
SAR-Lupe-2 3.9 22:38:39 10° N 22:42:11 56° WNW 22:42:21 55° W
Cosmos 1821 Rocket 4.3 22:38:15 10° NNW 22:44:33 59° W 22:46:56 37° SSW
Cosmos 1703 Rocket 4.4 22:46:02 35° WSW 22:47:08 42° WNW 22:51:22 10° N
Meteor 1-23 Rocket 4.4 22:46:24 41° SSE 22:48:18 63° E 22:54:05 10° NNE
Cosmos 1782 Rocket 4.2 22:44:09 10° NNW 22:48:23 43° W 22:48:59 40° WSW
Cosmos 1356 Rocket 3.7 22:47:00 10° NNW 22:51:11 53° W 22:51:37 50° WSW
Cosmos 1378 3.4 22:51:57 55° W 22:52:06 56° WNW 22:55:47 10° N
Cosmos 1726 4.0 22:52:23 10° NNE 22:55:24 23° ENE 22:56:32 20° E
Okean 1-7 4.1 22:55:59 30° WSW 22:57:03 34° WNW 23:01:00 10° N
RESURS DK-1 3.9 22:56:33 10° NW 22:59:27 24° W 22:59:27 24° W
Cosmos 1269 Rocket 3.9 22:58:39 10° NNW 23:03:59 85° WSW 23:05:40 45° SSE
Cosmos 1400 Rocket 3.4 22:59:58 10° N 23:04:00 50° ENE 23:04:54 41° ESE
Cosmos 1607 4.3 23:00:46 22° WSW 23:05:02 66° NW 23:11:32 10° NE
Cosmos 1378 Rocket 4.3 23:06:12 35° ESE 23:07:04 39° E 23:11:05 10° NNE
COSMOS 2455 3.3 23:01:05 10° NNW 23:07:06 62° NE 23:12:07 15° SE
Cosmos 1842 3.9 23:07:03 40° ESE 23:07:25 41° E 23:11:05 10° NNE
Thor Agena Rocket 3.7 23:03:13 10° N 23:08:27 69° WNW 23:10:18 40° SW
Cosmos 44 Rocket 3.6 23:07:07 10° NW 23:12:09 50° WSW 23:12:51 46° SSW
Cosmos 2221 Rocket 3.6 23:11:52 57° SSW 23:12:48 88° W 23:17:24 10° N
SL-24 R/B 4.3 23:14:16 43° SE 23:15:36 69° ENE 23:19:49 10° N
Okean 2 4.2 23:17:19 35° ESE 23:18:09 40° E 23:22:03 10° NNE
ISS -3.3 23:18:38 32° WNW 23:19:59 61° N 23:23:21 10° E
Cosmos 2344 4.4 23:10:55 10° NW 23:20:03 60° WSW 23:28:39 22° SSE
SeaSat 1 2.4 23:15:35 10° NNE 23:20:33 76° ESE 23:21:57 47° SSW
SL-16 R/B 3.7 23:15:13 10° SE 23:20:58 40° ENE 23:26:43 10° N
Cosmos 2219 4.1 23:16:14 10° NNW 23:21:45 47° NE 23:27:15 10° SE
Cosmos 1943 Rocket 4.4 23:18:46 10° W 23:22:56 21° NW 23:27:06 10° N
Meteor 1-22 Rocket 4.3 23:20:31 10° NNW 23:26:33 82° W 23:29:06 37° S
NOSS 2-1 (E) 4.4 23:22:29 10° NW 23:27:25 55° SW 23:29:48 36° S
Okean 1 Rocket 3.2 23:23:05 10° N 23:27:29 67° ENE 23:28:44 44° SE
CZ-4 R/B 4.3 23:23:50 10° NNE 23:28:35 52° E 23:30:01 38° SSE
BREEZE-M DEB (TANK) 4.2 23:29:11 36° SSE 23:30:10 40° SE 23:40:38 10° ENE
Cosmos 1733 4.0 23:28:12 10° NNW 23:31:42 37° W 23:31:42 37° W
Cosmos 2369 Rocket 3.9 23:27:51 10° WSW 23:32:37 27° NW 23:37:27 10° NNE
USA 215 3.2 23:30:08 19° SE 23:35:00 61° SW 23:41:29 10° WNW
Cosmos 1674 Rocket 3.5 23:34:54 53° S 23:35:58 89° E 23:40:27 10° N
EO 1 Del DPAF 3.4 23:32:47 10° N 23:36:28 56° WNW 23:36:55 51° WSW
Meteor 2-10 4.0 23:31:22 10° NNW 23:36:47 89° W 23:38:49 39° S
ADEOS II 4.3 23:35:13 10° NE 23:38:22 16° E 23:41:31 10° SE
Cosmos 1707 3.6 23:37:49 34° ESE 23:38:37 39° E 23:42:12 10° NNE
ATLAS CENTAUR R/B 2.8 23:41:53 20° W 23:43:44 30° NW 23:47:11 10° NNE
Helios 1B rocket 4.1 23:41:14 10° NE 23:44:44 26° E 23:46:15 21° SE
CZ-2D R/B 3.2 23:40:09 10° NNE 23:45:06 35° E 23:47:50 22° SE
Cosmos 1459 Rocket 4.4 23:39:13 10° N 23:45:27 61° ENE 23:49:37 21° SSE
USA 281 3.2 23:41:53 18° SSE 23:47:02 83° ENE 23:53:39 10° NNW
Cosmos 1605 Rocket 4.3 23:44:18 10° NNW 23:50:21 52° W 23:52:56 33° SSW
Resurs 1-4 Rocket 3.0 23:47:19 10° NNE 23:52:18 40° E 23:54:55 24° SSE
Lacrosse 5 1.8 23:50:42 38° SW 23:52:39 80° SE 23:57:46 10° ENE
PSLV R/B 4.4 23:48:45 10° N 23:52:50 39° WNW 23:54:09 31° WSW
